This demonstration page uses our WeatherBlox Daily Observations layout. Learn more.

38.89511, -77.03637

Hourly Observations for February 23, 2020

Temp ( °F °C ) Dew Point ( °F °C ) Humidity (%) Winds ( mph kmh ) Pressure ( in mb ) Visibility ( mi km ) Precip ( " mm )
12:52 am 00:52 Clear 36 2.2 28 -2.2 73 73 SSW 3 6 30.26 1025 10 16.0934 0 0
1:52 am 01:52 Clear 36 2.2 23 -5 59 59 SW 5 7 30.26 1025 10 16.0934 0 0
2:52 am 02:52 Clear 33 0.6 22 -5.6 64 64 Calm 30.25 1024 10 16.0934 0 0
3:52 am 03:52 Clear 32 0 22 -5.6 66 66 Calm 30.25 1024 10 16.0934 0 0
4:52 am 04:52 Clear 32 0 22 -5.6 66 66 Calm 30.27 1025 10 16.0934 0 0
5:52 am 05:52 Clear 31 -0.6 21 -6.1 67 67 Calm 30.29 1026 10 16.0934 0 0
6:52 am 06:52 Sunny 30 -1.1 22 -5.6 72 72 Calm 30.29 1026 10 16.0934 0 0
7:52 am 07:52 Sunny 34 1.1 28 -2.2 79 79 Calm 30.29 1026 10 16.0934 0 0
8:52 am 08:52 Sunny 38 3.3 29 -1.7 70 70 SW 3 6 30.29 1026 10 16.0934 0 0
9:52 am 09:52 Sunny 42 5.6 30 -1.1 62 62 S 6 9 30.28 1025 10 16.0934 0 0
10:52 am 10:52 Sunny 49 9.4 23 -5 36 36 S 7 11 30.27 1025 10 16.0934 0 0
11:52 am 11:52 Sunny 54 12.2 13 -10.6 19 19 SSW 7 11 30.25 1024 10 16.0934 0 0
12:52 pm 12:52 Sunny 55 12.8 7 -13.9 14 14 S 7 11 30.2 1023 10 16.0934 0 0
1:52 pm 13:52 Sunny 57 13.9 16 -8.9 20 20 S 9 15 30.16 1021 10 16.0934 0 0
2:52 pm 14:52 Mostly Sunny 59 15 15 -9.4 18 18 S 9 15 30.14 1021 10 16.0934 0 0
3:52 pm 15:52 Partly Cloudy 57 13.9 21 -6.1 25 25 S 10 17 30.13 1020 10 16.0934 0 0
4:52 pm 16:52 Partly Cloudy 57 13.9 15 -9.4 19 19 SSW 10 17 30.12 1020 10 16.0934 0 0
5:52 pm 17:52 Mostly Cloudy 51 10.6 26 -3.3 38 38 S 6 9 30.11 1020 10 16.0934 0 0
6:52 pm 18:52 Mostly Cloudy 51 10.6 25 -3.9 36 36 S 5 7 30.12 1020 10 16.0934 0 0
7:52 pm 19:52 Mostly Cloudy 50 10 22 -5.6 33 33 S 5 7 30.12 1020 10 16.0934 0 0
8:52 pm 20:52 Partly Cloudy 49 9.4 24 -4.4 38 38 S 3 6 30.11 1020 10 16.0934 0 0
9:52 pm 21:52 Partly Cloudy 46 7.8 24 -4.4 42 42 S 3 6 30.11 1020 10 16.0934 0 0
10:52 pm 22:52 Partly Cloudy 42 5.6 27 -2.8 55 55 Calm 30.1 1019 10 16.0934 0 0
11:52 pm 23:52 Partly Cloudy 42 5.6 29 -1.7 60 60 Calm 30.09 1019 10 16.0934 0 0

Powered by AerisWeather